Weather History for MMLO - November, 2012

Change the Weather History Date:

Friday, November 23, 2012

  Actual Average Record
Temperature  
Mean Temperature 64 °F -  
Max Temperature 77 °F 76 °F 84 °F (2010)
Min Temperature 51 °F 44 °F 33 °F (2002)
Degree Days  
Heating Degree Days 1    
Growing Degree Days 14 (Base 50)    
Moisture  
Dew Point 43 °F    
Average Humidity 50    
Maximum Humidity 67    
Minimum Humidity 31    
Precipitation  
Precipitation 0.00 in - - ()
Sea Level Pressure  
Sea Level Pressure 30.17 in    
Wind  
Wind Speed 4 mph ()    
Max Wind Speed 18 mph    
Max Gust Speed 23 mph    
Visibility 9.0 miles    
Events      
Averages and records for this station are not official NWS values.
T = Trace of Precipitation, MM = Missing Value Source: Averaged Metar Reports

Daily Weather History Graph

Daily Weather History Graph

Search for Another Location

Airport or City:

Trip Planner

Search our weather history database for the weather conditions in past years. The results will help you decide how hot, cold, wet, or windy it might be!

Date:

Astronomy

Nov. 23, 2012 Rise Set
Actual Time 7:01 AM CST 6:03 PM CST
Civil Twilight 6:37 AM CST 6:26 PM CST
Nautical Twilight 6:10 AM CST 6:54 PM CST
Astronomical Twilight 5:43 AM CST 7:20 PM CST
Moon 2:53 PM CST (11/23) 2:51 AM CST (11/23)
Length of Visible Light 11h 49m
Length of Day
11h 01m
Waxing Gibbous, 80% of the Moon is Illuminated
Nov 23
Waxing Gibbous
Nov 28
Full
Dec 6
Last Quarter
Dec 13
New
Dec 19
First Quarter

Hourly Weather History & Observations

Time (CST) Temp. Dew Point Humidity Pressure Visibility Wind Dir Wind Speed Gust Speed Precip Events Conditions
12:41 AM 62.6 °F 44.6 °F 52% 30.27 in 8.0 mi Calm Calm - N/A   Scattered Clouds
1:47 AM 59.0 °F 37.4 °F 45% 30.28 in 8.0 mi Calm Calm - N/A   Scattered Clouds
2:45 AM 55.4 °F 41.0 °F 58% 29.90 in 8.0 mi Calm Calm - N/A   Partly Cloudy
3:50 AM 53.6 °F 42.8 °F 67% 30.27 in 8.0 mi East 6.9 mph - N/A   Clear
4:45 AM 53.6 °F 42.8 °F 67% 30.26 in 8.0 mi East 9.2 mph - N/A   Clear
5:49 AM 51.8 °F 41.0 °F 67% 29.98 in 8.0 mi Calm Calm - N/A   Scattered Clouds
6:41 AM 51.8 °F 41.0 °F 67% 30.25 in 10.0 mi Calm Calm - N/A   Partly Cloudy
7:50 AM 57.2 °F 44.6 °F 63% 30.32 in 10.0 mi Calm Calm - N/A   Scattered Clouds
8:46 AM 60.8 °F 48.2 °F 63% 29.99 in 10.0 mi Calm Calm - N/A   Mostly Cloudy
9:43 AM 66.2 °F 50.0 °F 56% 30.35 in 10.0 mi Calm Calm - N/A   Mostly Cloudy
10:48 AM 71.6 °F 48.2 °F 43% 30.32 in 10.0 mi Calm Calm - N/A   Mostly Cloudy
11:43 AM 73.4 °F 48.2 °F 41% 29.93 in 10.0 mi Calm Calm - N/A   Mostly Cloudy
12:44 PM 77.0 °F 44.6 °F 32% 30.29 in 10.0 mi Calm Calm - N/A   Mostly Cloudy
1:48 PM 75.2 °F 42.8 °F 31% 30.27 in 10.0 mi Calm Calm - N/A   Mostly Cloudy
2:49 PM 73.4 °F 44.6 °F 36% 29.89 in 10.0 mi Calm Calm - N/A   Mostly Cloudy
3:42 PM 73.4 °F 42.8 °F 33% 30.21 in 10.0 mi East 11.5 mph - N/A   Mostly Cloudy
4:45 PM 73.4 °F 41.0 °F 31% 30.23 in 10.0 mi East 13.8 mph - N/A   Mostly Cloudy
5:46 PM 66.2 °F 41.0 °F 40% 29.99 in 10.0 mi ENE 16.1 mph - N/A   Mostly Cloudy
6:50 PM 62.6 °F 44.6 °F 52% 30.26 in 8.0 mi NE 11.5 mph - N/A   Mostly Cloudy
7:48 PM 62.6 °F 44.6 °F 52% 30.27 in 8.0 mi NE 13.8 mph - N/A   Mostly Cloudy
8:50 PM 62.6 °F 41.0 °F 45% 29.96 in 8.0 mi NE 16.1 mph - N/A   Mostly Cloudy
9:46 PM 60.8 °F 42.8 °F 52% 30.29 in 8.0 mi NE 18.4 mph - N/A   Mostly Cloudy
10:51 PM 60.8 °F 42.8 °F 52% 30.29 in 8.0 mi ENE 11.5 mph 23.0 mph N/A   Mostly Cloudy
11:46 PM 57.2 °F 41.0 °F 55% 29.98 in 8.0 mi ENE 6.9 mph - N/A   Mostly Cloudy